Location: Hylvaty SDH
(49.9612°N, 16.4057°E)
Time: 11:41:37
(UTC+01:00)

Tiros 1 - Pass Details

Date: 04 October 2020
Orbit: 630 x 663 km, 48.4° (Epoch: 28 October)

Event Time Altitude Azimuth Distance (km) Brightness Sun altitude
Rises 14:27:31 0° 240° (WSW) 2,935 11.4 30.9°
Reaches altitude 10° 14:29:52 10° 236° (SW) 2,033 10.9 30.7°
Maximum altitude 14:34:25 52° 160° (SSE) 807 8.5 30.3°
Drops below altitude 10° 14:39:02 10° 85° (E) 2,060 9.5 29.9°
Sets 14:41:25 0° 81° (E) 2,978 10.2 29.7°
